Dewpoint
55 55 55 55 54 54 53 54 53 52 51 51 49 51 38 39 34 38 44 43 27 24 24 42 40 25 26 33 19 17 17 18 19 14 16 20 21 23 21 23 24 25 26 25 28 30 23 26 24 21 21 20 18 18 18 18 22 18 19 26 26 44 31 27 28 34 34 31 30 29 27 22 22 21 19 15 14 16 22 26 28 42 43 41 41 42 47
55 55 55 54 54 53 53 54 53 53 52 51 50 45 39 39 39 42 45 38 27 26 24 23 27 29 23 19 16 17 15 15 13 13 14 23 17 25 22 20 29 29 26 26 30 29 23 26 28 25 27 20 25 17 24 25 25 26 25 29 25 30 34 28 29 30 30 28 27 26 26 27 28 28 23 19 18 24 29 38 42 41 42 42 39 39 46
55 55 54 54 54 53 53 54 53 53 52 52 50 46 45 45 44 44 45 45 23 20 23 22 24 34 18 18 15 14 13 16 16 16 15 17 18 21 20 21 26 27 29 30 28 29 27 28 29 29 26 22 24 22 22 33 38 42 39 48 43 29 35 40 28 27 22 23 23 24 28 26 28 27 16 18 21 23 31 32 39 34 41 43 42 44 49
55 55 54 54 54 54 54 53 53 53 52 52 52 49 44 42 32 38 34 35 21 24 28 21 21 27 30 20 18 15 15 15 18 17 16 19 21 28 27 23 29 29 29 31 30 30 32 30 30 33 30 28 19 25 27 31 40 53 48 48 38 32 39 39 37 34 29 28 32 34 39 23 15 16 20 21 24 35 34 38 38 36 40 41 42 47 49
55 54 54 54 54 54 53 53 53 52 52 52 51 51 46 45 33 32 37 40 19 18 16 20 24 21 27 22 18 19 20 19 20 22 17 18 22 29 31 33 29 30 29 33 34 37 38 37 34 34 32 32 27 26 29 26 42 52 39 43 39 37 30 35 36 34 36 37 36 29 35 20 19 18 21 26 31 38 41 31 32 43 41 36 42 49 49
54 54 54 54 54 54 53 53 53 52 51 52 52 44 44 34 38 38 42 26 21 21 22 18 28 32 24 24 23 22 21 21 25 22 23 23 30 30 31 31 34 35 33 36 33 36 35 35 33 34 32 34 29 24 26 25 36 39 27 34 30 32 30 34 34 27 26 25 24 20 21 23 26 26 26 31 36 44 39 42 44 43 37 37 44 49 48
54 54 54 54 54 54 54 54 52 52 50 51 50 42 43 42 43 43 46 36 36 21 28 28 32 34 34 35 25 20 19 20 21 22 23 26 28 33 31 29 26 27 33 36 33 33 30 28 35 31 30 31 32 23 27 25 27 28 29 30 39 30 28 36 30 37 24 24 23 24 25 29 30 29 30 31 45 46 45 46 47 44 41 44 48 47 48
54 54 54 54 54 54 54 53 53 51 50 52 48 45 39 38 42 44 47 48 46 45 33 33 26 23 37 19 21 27 26 20 19 19 23 29 28 35 28 30 26 24 25 31 25 27 34 29 24 30 30 24 32 32 28 20 27 27 27 32 31 24 26 39 33 36 27 26 27 23 27 30 30 32 30 30 35 44 47 47 48 48 48 48 48 47 47
55 54 54 54 54 54 54 54 53 51 50 52 49 47 48 47 46 46 46 44 46 47 41 33 30 21 23 22 25 34 24 27 24 22 29 27 30 33 29 32 29 30 26 27 27 28 34 36 26 25 26 21 24 23 25 26 26 28 27 29 34 32 28 33 36 32 28 27 27 26 25 29 32 33 32 30 34 41 43 46 48 47 46 46 47 46 46
55 54 54 54 54 54 54 54 53 51 50 52 49 45 51 49 49 52 48 42 50 43 44 35 24 19 22 31 29 31 29 29 32 21 26 30 33 33 30 30 24 28 27 26 27 24 21 20 18 20 21 23 27 30 24 27 25 24 27 33 33 35 29 26 28 26 28 30 34 31 26 26 29 33 29 30 39 47 47 47 49 48 47 46 45 46 48
55 54 54 54 55 55 55 54 54 51 51 51 49 49 51 50 49 49 47 39 38 44 35 24 26 30 27 27 24 25 28 31 33 25 23 27 28 32 30 31 26 22 24 25 21 21 23 23 20 22 23 23 22 21 29 31 35 28 30 32 33 38 33 30 33 26 27 31 34 34 27 26 28 32 30 41 42 47 46 46 48 48 49 46 47 48 48
55 54 54 54 55 55 55 54 54 53 51 50 51 51 52 51 49 48 44 37 37 45 30 24 28 28 23 23 25 30 31 31 30 32 27 28 26 26 29 35 32 27 26 24 32 34 32 34 31 34 33 33 33 30 27 26 28 41 33 28 32 34 35 31 34 24 23 31 33 31 25 25 34 36 36 45 47 47 47 47 48 49 48 48 47 47 47
55 55 54 54 54 54 55 54 54 53 52 50 50 52 53 54 51 49 46 43 39 44 34 31 36 24 24 26 28 31 30 31 35 34 27 28 27 25 28 30 31 27 31 29 35 35 32 32 29 37 34 37 37 32 30 33 27 29 32 35 30 29 32 33 32 30 28 25 29 25 25 33 40 39 39 41 39 44 46 46 47 48 50 48 47 46 46
55 54 54 54 54 54 54 54 54 54 53 51 49 49 51 53 50 48 47 43 42 45 47 38 32 29 28 30 33 33 31 28 32 29 26 29 27 27 26 33 29 34 26 40 41 33 32 30 26 31 29 31 30 26 31 37 34 31 31 33 38 35 35 32 27 30 20 22 26 26 36 33 36 36 33 32 34 35 44 42 44 49 52 49 47 46 45
54 54 54 54 54 54 54 54 54 54 53 52 49 50 50 52 52 50 51 46 43 45 39 35 37 38 33 31 38 32 33 34 31 27 33 37 26 25 24 24 30 28 35 33 34 36 29 31 27 25 27 23 18 21 34 28 30 31 38 38 35 33 26 30 29 29 29 24 25 26 26 25 31 40 40 40 33 38 45 45 43 48 50 51 48 48 48
55 54 54 54 54 54 54 54 54 54 54 52 49 49 51 53 54 52 49 47 43 35 36 41 42 41 32 33 37 31 30 33 33 35 35 38 28 25 24 28 31 33 36 40 37 35 34 29 28 25 21 22 27 24 22 27 19 21 35 38 36 35 34 32 26 26 24 24 21 21 22 27 35 36 39 38 32 35 46 44 40 45 50 52 51 49 49
55 54 54 54 54 54 54 54 54 54 54 52 49 48 52 53 54 51 48 45 42 37 40 44 40 42 37 36 33 34 40 34 38 29 31 30 31 31 27 35 37 38 40 38 37 36 33 31 31 27 29 30 18 18 23 18 18 23 31 35 35 33 32 25 23 27 30 24 19 17 27 29 33 39 39 33 34 35 35 34 37 44 49 50 48 47 48
56 54 54 54 54 54 53 53 54 54 53 53 49 48 51 53 54 50 49 42 38 37 43 40 41 36 34 35 35 36 38 35 37 40 37 39 39 36 32 38 33 32 40 36 39 33 32 30 25 25 22 31 27 28 15 20 16 18 22 27 28 30 28 24 17 24 31 30 16 19 29 39 42 40 36 35 41 30 22 21 30 43 49 49 49 47 48
56 54 54 54 54 54 53 53 53 53 53 52 50 51 53 52 56 51 47 44 37 32 36 40 43 42 42 37 39 36 35 31 36 35 34 34 35 41 35 33 35 29 39 35 35 31 29 29 35 29 25 27 32 21 26 19 18 25 24 21 24 26 32 37 24 18 15 22 14 16 25 34 39 41 40 41 27 16 18 26 38 46 49 49 49 48 49
56 55 54 54 54 54 53 53 53 53 53 53 50 47 49 51 55 54 48 42 41 38 42 44 43 42 44 38 36 34 38 39 40 37 36 33 39 40 35 31 35 39 36 38 33 35 31 29 30 32 29 29 31 33 23 24 30 24 24 25 24 26 23 20 21 25 24 24 22 19 16 31 39 38 34 39 26 23 30 38 43 48 49 49 49 50 50
56 55 54 54 54 54 54 53 53 53 53 53 51 47 47 51 54 55 54 48 43 32 33 35 44 46 47 44 36 34 39 38 40 39 41 38 42 37 28 32 32 36 33 36 32 32 34 31 32 31 32 31 31 30 24 24 27 33 28 27 25 31 21 22 25 29 20 22 17 17 22 31 41 36 30 32 37 36 42 42 41 43 47 48 48 48 49
56 56 54 54 54 53 53 53 53 53 53 53 51 47 46 49 53 55 55 51 45 36 31 34 45 47 48 47 47 45 39 39 40 43 41 38 41 38 38 41 42 38 39 40 36 35 36 35 36 32 30 31 34 29 30 25 23 28 34 29 23 34 26 28 24 30 27 26 29 33 38 38 42 42 40 42 45 47 45 42 42 42 41 44 47 49 48
56 56 55 53 54 53 53 53 52 52 52 53 51 47 44 48 51 54 52 48 47 49 52 51 50 48 52 52 51 50 45 39 41 43 42 39 38 41 39 38 37 43 46 40 36 35 36 36 32 35 33 35 30 30 30 28 26 31 27 30 28 34 34 35 30 29 34 38 37 39 39 42 43 42 45 44 43 43 42 40 40 42 43 44 46 48 48
56 56 55 53 53 53 53 53 52 52 52 52 52 47 47 47 49 53 51 48 46 43 44 46 44 43 44 44 45 41 41 44 41 40 46 42 38 37 41 43 42 44 43 44 43 38 38 36 34 36 30 33 34 30 26 26 30 33 33 32 35 38 38 33 29 35 26 22 31 41 41 42 43 42 39 40 43 43 44 41 42 42 42 43 45 45 47
56 56 56 54 53 53 53 53 52 52 52 52 51 50 50 49 49 51 48 41 44 40 36 42 46 45 46 48 47 38 33 38 44 40 39 43 41 39 40 43 47 42 41 43 45 42 41 37 36 35 31 37 34 29 34 32 30 35 31 32 33 32 38 35 38 33 28 30 37 42 44 43 44 45 44 44 44 42 44 43 43 44 44 44 43 43 42
56 56 55 54 53 53 53 52 52 52 52 52 52 47 46 47 48 51 51 49 47 44 42 40 43 46 49 46 43 43 44 38 36 39 39 39 40 42 44 47 44 50 50 50 44 41 39 39 38 36 32 34 39 34 34 36 34 37 34 34 36 35 40 30 36 33 36 37 39 41 40 41 43 45 45 45 44 42 44 45 44 43 41 41 42 43 42
56 56 55 54 53 53 52 52 52 51 52 52 51 47 47 48 50 51 50 48 46 42 41 40 44 47 46 47 49 46 44 37 37 37 37 38 42 46 45 44 44 45 45 43 45 43 40 38 37 35 37 37 39 38 38 37 37 36 35 38 42 36 34 37 34 32 30 33 36 39 36 35 40 43 45 46 46 44 44 44 43 42 41 41 41 42 44
55 55 55 54 53 52 52 52 52 51 52 52 50 49 48 48 50 52 53 51 47 42 42 42 42 43 47 47 51 44 42 47 38 38 37 37 41 44 44 45 45 42 41 41 38 39 38 37 37 40 42 42 40 38 42 41 39 37 37 38 41 36 37 37 34 32 32 36 39 41 39 39 42 44 45 46 46 45 45 44 43 43 44 43 41 42 42
55 55 55 54 53 52 52 52 51 51 52 51 47 49 50 50 52 53 52 54 51 48 45 46 46 44 39 41 45 41 41 42 41 43 44 42 41 44 44 44 43 45 45 45 43 41 39 39 44 42 40 43 41 38 38 34 35 33 36 40 44 44 41 39 39 38 41 42 43 44 42 41 44 47 47 47 47 46 45 45 46 45 44 43 43 42 42
55 55 55 53 52 52 52 51 51 51 51 48 49 48 46 49 51 52 52 54 52 48 45 38 30 37 46 47 44 44 47 47 47 47 46 46 47 45 44 45 49 52 47 44 43 39 42 43 46 46 47 46 41 39 36 34 33 36 40 44 45 45 46 46 43 40 39 43 45 45 43 44 45 45 47 48 50 48 47 47 48 46 46 46 42 42 43
55 55 54 53 52 52 52 51 51 51 50 48 48 46 42 43 47 53 52 52 51 50 46 40 35 40 44 50 46 48 49 50 49 50 52 51 50 50 51 50 49 51 42 44 44 42 44 42 43 43 46 48 46 39 37 35 33 35 39 45 45 44 45 45 45 46 45 45 46 47 46 46 46 44 44 47 48 48 49 48 49 56 50 49 45 44 43
55 55 53 52 52 52 51 51 51 51 47 47 45 45 47 47 50 52 52 52 52 49 44 40 37 38 39 43 47 53 53 52 54 54 51 54 48 50 50 49 46 51 48 45 46 43 42 43 42 43 42 47 48 40 38 35 35 37 40 43 45 46 46 46 45 46 47 47 45 43 42 42 44 42 42 45 47 47 47 47 48 49 54 50 48 48 47
55 53 52 52 52 51 51 51 51 50 47 48 51 51 51 51 52 51 52 50 51 48 45 39 35 38 38 39 45 49 52 50 48 48 47 52 47 49 47 52 49 48 55 47 41 40 44 45 43 42 44 46 43 42 38 37 37 40 43 45 45 46 46 48 47 45 45 45 43 41 40 41 43 45 45 46 46 46 46 46 47 48 48 47 46 45 46
54 52 52 51 51 51 51 51 52 52 51 50 49 48 52 53 51 51 50 51 48 48 45 42 41 39 37 44 42 47 52 45 44 45 43 49 50 48 47 47 48 43 45 41 44 43 44 47 41 42 43 43 43 39 37 38 40 43 44 45 45 45 45 44 44 44 45 45 46 43 43 44 44 45 45 44 45 45 48 47 47 46 46 47 47 47 47
53 52 52 51 51 51 52 52 49 51 50 50 49 52 51 52 52 53 54 49 42 44 42 43 40 38 37 39 39 42 49 47 44 46 44 45 51 46 46 44 44 40 42 47 43 41 41 41 44 42 39 41 40 37 37 38 41 43 44 44 44 45 44 42 43 44 45 45 45 45 45 45 44 44 43 44 44 45 45 45 46 45 45 45 44 46 47
52 51 51 51 52 52 50 51 50 50 47 47 50 54 55 55 54 52 52 53 47 42 40 40 40 37 38 36 36 41 51 45 46 47 47 46 43 47 46 42 39 41 47 41 39 41 40 46 43 37 40 37 37 36 38 41 42 43 44 44 43 44 43 43 43 45 45 45 45 45 44 43 44 43 42 42 43 44 44 45 45 45 45 44 45 45 46
51 51 51 52 51 51 48 49 52 51 50 51 54 57 58 58 55 54 52 50 51 50 43 40 40 40 40 40 41 44 45 39 44 43 44 41 40 46 42 39 38 45 41 39 40 39 41 48 38 36 37 33 36 42 44 44 44 44 44 43 46 46 45 45 47 47 45 43 42 42 42 41 41 41 41 42 43 44 44 44 45 44 45 45 46 47 46
51 51 48 49 48 47 47 50 51 52 56 56 56 51 49 50 46 48 47 45 47 52 44 42 40 41 43 41 40 46 43 41 44 40 40 44 41 40 44 42 44 46 37 38 39 44 42 40 37 37 36 38 43 45 44 44 44 44 44 45 45 45 45 45 43 42 40 39 39 40 41 40 40 39 40 40 41 42 44 45 44 44 45 46 47 47 47
51 48 48 48 47 46 47 50 54 56 54 54 52 48 45 48 44 43 44 45 45 42 43 40 39 40 42 41 42 47 44 43 41 41 37 43 40 37 42 37 41 39 31 34 38 44 37 34 34 35 35 38 41 42 44 44 45 44 45 45 47 45 45 44 45 42 40 40 40 41 40 39 39 40 40 40 41 42 43 44 45 45 46 46 46 47 47
48 47 46 46 47 50 55 53 56 54 53 48 48 44 44 47 40 36 44 40 40 43 45 41 44 44 44 41 43 43 48 43 40 39 38 41 42 36 39 37 37 36 31 31 34 42 36 33 34 34 33 37 39 41 43 43 45 44 44 45 45 45 45 44 45 45 44 43 44 43 44 43 43 42 42 42 42 41 41 42 44 45 45 46 48 48 47
48 49 49 48 50 50 50 53 52 50 48 45 43 44 42 37 43 42 44 38 36 40 46 44 45 44 46 46 44 42 47 51 46 44 41 38 43 44 36 34 38 32 30 28 36 40 35 33 31 29 32 35 38 40 42 44 44 46 45 45 45 44 45 45 45 45 45 43 43 43 43 44 44 43 43 43 42 42 42 43 44 45 46 45 48 49 47
49 49 49 49 49 49 50 50 48 45 45 45 40 34 34 39 41 39 40 37 37 43 44 45 43 43 44 47 45 45 47 49 47 47 40 39 42 38 37 38 37 29 25 32 40 34 31 28 28 29 36 38 40 41 42 42 42 45 45 44 45 45 45 44 44 44 45 44 43 43 43 43 43 43 43 42 42 42 42 43 45 45 47 47 47 46 46
50 50 49 48 49 50 46 39 43 43 37 38 31 31 32 31 35 35 37 43 49 43 43 49 47 48 49 50 46 47 46 48 43 42 39 36 42 39 36 33 31 27 33 40 33 29 26 22 22 32 34 36 39 40 39 40 41 41 41 42 43 43 44 44 44 44 44 44 43 43 43 43 43 43 43 44 43 43 44 48 49 47 47 47 47 46 47
51 51 49 48 44 45 43 34 43 43 36 30 30 26 29 30 31 38 40 41 44 45 45 43 44 44 43 46 44 45 45 45 45 41 39 41 36 36 34 31 31 34 39 33 30 24 26 29 31 33 36 38 40 40 38 40 40 40 41 42 42 42 42 42 42 42 41 42 42 43 43 43 42 43 42 42 43 43 44 44 47 49 47 46 46 46 47
48 44 38 38 39 40 33 32 34 32 31 33 34 33 33 30 33 36 39 43 45 44 46 45 46 45 45 46 45 46 44 42 44 38 36 38 34 34 32 31 35 30 28 27 28 29 30 32 34 36 36 36 37 38 40 39 40 40 40 41 42 42 43 42 42 42 42 42 42 42 42 42 42 42 42 42 43 44 44 44 45 48 47 45 45 45 46
43 38 35 35 36 33 28 25 31 34 36 39 37 38 36 36 38 39 43 47 45 46 47 47 46 46 44 46 41 41 44 42 39 38 39 35 32 30 35 39 30 26 25 26 24 22 27 29 33 34 35 36 38 39 39 39 40 41 40 41 41 42 42 43 43 43 43 43 43 42 42 42 41 41 41 41 42 42 43 44 45 47 46 45 45 45 46
44 46 33 31 29 30 34 30 31 34 37 39 41 41 37 37 42 44 45 47 46 47 47 47 47 47 43 43 41 40 42 41 38 39 37 34 32 34 38 31 28 23 20 19 21 24 27 31 34 35 37 38 39 39 39 39 40 40 40 41 42 42 42 42 42 42 42 42 42 42 41 41 41 41 41 41 41 42 44 44 46 47 47 46 46 46 47
37 38 35 33 30 31 31 34 38 39 41 39 38 40 42 44 44 43 45 47 48 49 48 46 44 43 42 44 42 39 40 39 36 36 38 36 31 27 20 23 25 28 26 24 24 27 29 32 36 37 38 39 39 39 39 39 40 40 40 41 41 41 41 41 41 42 42 42 42 41 41 41 41 42 42 42 42 43 44 45 46 47 47 46 46 47 47
42 35 35 31 35 35 36 40 38 37 38 39 41 41 45 45 45 45 47 49 48 48 48 45 45 41 38 41 39 37 36 37 33 31 33 29 26 21 21 16 23 21 29 30 28 30 33 36 39 39 38 39 39 40 39 39 40 40 41 40 40 41 41 41 42 42 43 43 42 42 42 43 42 43 43 42 43 43 45 46 47 47 47 47 47 47 46
39 37 39 36 38 37 40 40 37 36 37 41 44 43 45 44 44 46 49 48 49 48 46 45 43 38 38 37 31 26 27 33 34 27 26 26 26 24 22 17 21 23 25 30 31 33 36 39 39 38 38 39 41 40 38 39 42 43 41 41 41 41 41 41 42 42 43 43 43 43 43 44 43 43 42 42 43 43 44 46 46 46 46 46 46 46 46
40 36 37 42 39 37 37 32 33 34 35 36 39 43 44 45 45 45 48 49 47 44 43 42 39 35 33 25 22 22 22 30 28 24 25 26 27 25 21 20 24 28 30 33 35 37 39 39 39 38 37 37 38 39 39 40 41 41 40 40 41 41 41 42 42 43 43 43 43 45 44 43 43 43 44 44 43 44 44 46 47 45 47 47 47 46 46
34 35 36 40 43 42 42 41 41 40 40 39 39 43 46 45 47 47 50 47 45 43 41 42 37 31 27 26 27 29 30 26 26 26 22 26 31 28 27 27 29 32 34 36 36 38 40 39 38 41 38 39 41 39 38 39 40 40 40 40 40 40 41 41 42 42 43 43 43 43 43 44 44 43 44 43 44 43 43 45 47 47 47 47 47 47 46